Location: Melizzano
(41.1500°N, 14.5000°E)
Time: 19:34:47
(UTC+00:00)

Cosmos 1812 - Pass Details

Date: 11 May 2021
Orbit: 514 x 521 km, 82.5° (Epoch: 21 June)

Event Time Altitude Azimuth Distance (km) Brightness Sun altitude
Exits shadow 20:46:59 27° 243° (WSW) 1,031 4.2 -23.4°
Maximum altitude 20:48:17 35° 283° (WNW) 866 4.1 -23.5°
Drops below altitude 10° 20:51:52 10° 350° (N) 1,766 6.3 -23.9°
Sets 20:54:09 0° 359° (N) 2,659 7.2 -24.1°
